Temp
-16 -16 -17 -17 -17 -16 -16 -16 -16 -17 -17 -17 -17 -16 -16 -15 -15 -15 -15 -14 -14 -14 -14 -13 -13 -12 -12 -11 -10 -9 -8 -7 -5 -5 -4 -4 -3 -2 -1 -1 -0 0 1 1 1 2 2 2 3 3 4 4 5 5 5 6 6 7 7 8 8 8 8 9 10 10 11 11 11 11 11 11 11 11
-16 -16 -17 -17 -16 -17 -17 -17 -17 -17 -17 -17 -17 -16 -16 -16 -16 -16 -15 -15 -15 -14 -14 -14 -13 -13 -12 -11 -10 -9 -8 -7 -6 -5 -4 -3 -3 -2 -2 -1 -1 -0 0 1 1 1 2 2 3 3 3 4 4 5 5 5 6 6 7 8 8 8 8 9 10 11 12 12 12 12 11 11 11 11
-16 -17 -17 -17 -17 -17 -18 -18 -18 -18 -18 -18 -17 -17 -16 -16 -16 -16 -15 -15 -15 -14 -14 -14 -13 -12 -12 -11 -10 -9 -8 -7 -6 -5 -4 -4 -3 -3 -2 -1 -1 -0 0 1 1 1 2 2 3 3 3 3 4 4 5 5 5 6 6 7 8 8 8 9 10 11 12 13 14 14 12 12 11 11
-16 -17 -17 -17 -17 -18 -18 -18 -19 -18 -18 -18 -17 -17 -17 -17 -16 -16 -16 -15 -15 -14 -14 -14 -13 -12 -12 -11 -10 -9 -8 -7 -6 -5 -4 -4 -3 -3 -2 -1 -1 -1 -0 0 1 1 2 2 3 3 3 3 3 4 4 5 5 5 6 7 8 8 8 8 9 11 12 12 14 14 12 11 11 11
-16 -17 -17 -17 -18 -18 -19 -19 -19 -18 -18 -18 -17 -17 -17 -17 -17 -16 -16 -15 -15 -15 -14 -13 -13 -12 -12 -11 -11 -10 -9 -7 -5 -5 -5 -4 -3 -3 -2 -1 -1 -1 -0 0 1 1 2 2 2 2 2 3 3 4 4 4 4 5 6 7 7 7 8 8 8 10 11 11 11 11 11 11 11 11
-16 -17 -17 -18 -18 -18 -18 -19 -19 -18 -18 -17 -17 -17 -17 -17 -16 -16 -16 -16 -16 -15 -14 -14 -13 -12 -13 -12 -11 -10 -9 -7 -6 -5 -4 -4 -3 -3 -2 -2 -1 -1 -1 -0 0 1 2 2 2 2 2 2 3 3 4 4 4 4 5 6 6 7 8 8 7 9 10 10 10 11 11 12 12 12
-16 -17 -18 -18 -18 -18 -18 -19 -18 -18 -18 -17 -17 -17 -16 -16 -16 -15 -16 -16 -15 -15 -14 -14 -14 -13 -13 -13 -11 -10 -9 -7 -6 -5 -4 -3 -3 -3 -2 -2 -1 -1 -1 -0 0 1 1 2 2 2 2 2 2 3 3 4 4 4 4 5 6 7 8 8 7 8 9 10 10 10 11 12 12 12
-16 -17 -18 -18 -18 -18 -19 -19 -18 -18 -17 -17 -17 -17 -16 -16 -15 -15 -15 -15 -15 -15 -14 -14 -14 -14 -13 -12 -10 -9 -8 -7 -6 -5 -4 -4 -3 -3 -2 -2 -1 -1 -1 -0 0 1 1 2 2 2 2 2 2 3 3 3 4 4 4 4 5 6 7 7 7 7 8 9 9 9 10 10 11 11
-16 -17 -18 -18 -18 -18 -19 -19 -18 -17 -17 -17 -17 -16 -16 -15 -15 -15 -15 -15 -15 -15 -15 -14 -14 -14 -13 -12 -10 -9 -8 -7 -5 -5 -4 -4 -4 -3 -2 -2 -1 -1 -1 -1 0 1 1 2 2 2 2 2 2 2 3 3 3 4 4 4 4 5 6 7 7 7 7 8 8 9 9 9 9 10
-16 -17 -17 -18 -18 -18 -19 -19 -18 -18 -17 -17 -17 -16 -16 -15 -16 -16 -16 -15 -15 -15 -15 -14 -14 -14 -13 -12 -10 -8 -7 -7 -5 -5 -4 -4 -3 -3 -2 -1 -1 -1 -1 -0 -0 1 1 2 2 2 2 2 2 2 2 3 3 3 4 4 4 5 6 6 7 7 7 7 7 8 9 9 9 9
-16 -16 -17 -18 -18 -18 -19 -18 -18 -18 -17 -17 -16 -16 -16 -16 -16 -16 -16 -16 -15 -15 -15 -14 -14 -14 -13 -12 -10 -7 -6 -6 -5 -5 -4 -4 -3 -3 -2 -1 -1 -1 -1 -0 -0 1 1 2 2 2 1 2 2 2 2 2 3 3 3 4 4 4 5 6 6 6 7 7 7 7 8 9 9 9
-16 -16 -17 -18 -18 -18 -19 -18 -17 -17 -17 -17 -16 -16 -16 -16 -16 -16 -16 -16 -15 -15 -15 -14 -14 -13 -12 -12 -10 -8 -6 -5 -5 -5 -4 -3 -3 -2 -2 -2 -1 -1 -1 -1 -0 1 1 1 2 2 1 1 2 2 2 2 2 3 3 3 3 4 4 5 6 6 7 7 7 7 7 8 8 9
-16 -16 -17 -18 -18 -18 -18 -17 -17 -17 -16 -16 -16 -16 -17 -17 -17 -16 -16 -16 -16 -16 -15 -15 -14 -14 -13 -12 -11 -9 -6 -5 -5 -4 -4 -3 -2 -2 -2 -2 -1 -1 -1 -1 -0 0 1 1 1 1 1 1 2 2 2 2 2 2 2 2 3 3 4 4 5 5 6 7 7 7 7 8 8 8
-15 -16 -17 -18 -18 -18 -18 -17 -17 -17 -16 -17 -17 -17 -17 -17 -17 -17 -17 -16 -16 -16 -16 -15 -14 -14 -13 -12 -11 -9 -7 -5 -4 -4 -3 -3 -2 -2 -2 -2 -1 -1 -1 -1 -0 0 1 1 1 1 1 1 2 2 2 2 2 2 2 2 2 3 3 4 4 5 6 7 7 8 8 8 8 8
-16 -16 -17 -17 -18 -18 -18 -17 -17 -17 -17 -17 -17 -17 -17 -17 -17 -17 -17 -17 -17 -16 -16 -15 -14 -14 -14 -13 -11 -10 -8 -5 -4 -4 -3 -3 -2 -2 -2 -2 -1 -1 -1 -1 -0 0 0 0 1 1 1 1 1 2 2 2 2 2 2 1 1 2 3 4 4 4 5 6 6 7 8 7 7 7
-16 -16 -16 -17 -17 -18 -18 -18 -17 -17 -17 -17 -17 -17 -17 -16 -16 -16 -17 -17 -17 -16 -17 -16 -14 -14 -15 -13 -11 -10 -8 -6 -5 -4 -3 -3 -2 -2 -2 -1 -1 -1 -1 -1 -1 -0 0 0 0 0 1 1 1 1 2 2 3 2 2 1 1 1 2 3 4 4 5 5 6 6 7 7 7 7
-16 -16 -16 -16 -17 -18 -19 -18 -17 -17 -17 -17 -17 -17 -16 -16 -16 -15 -15 -16 -16 -16 -17 -16 -14 -14 -15 -13 -11 -9 -8 -6 -5 -4 -4 -3 -3 -2 -2 -1 -1 -1 -1 -1 -1 -0 -0 0 0 0 0 1 1 1 2 2 3 3 2 1 1 1 2 3 3 3 4 4 5 5 6 7 7 7
-16 -16 -16 -16 -17 -18 -19 -18 -17 -17 -17 -18 -17 -17 -16 -16 -15 -15 -14 -14 -14 -15 -16 -14 -14 -14 -14 -13 -11 -9 -8 -6 -5 -4 -4 -3 -3 -3 -2 -2 -2 -2 -2 -1 -1 -1 -0 0 0 0 0 0 1 1 1 2 2 2 2 1 1 1 1 2 3 3 3 4 4 5 6 6 7 8
-16 -16 -16 -16 -17 -18 -19 -19 -17 -17 -18 -18 -17 -17 -17 -16 -15 -14 -14 -13 -13 -14 -14 -13 -13 -13 -13 -13 -11 -9 -8 -6 -5 -4 -4 -3 -3 -3 -2 -2 -2 -2 -2 -2 -2 -1 -0 -0 0 0 0 0 1 1 1 1 2 2 2 1 1 1 1 2 2 3 3 3 4 4 5 6 7 8
-16 -16 -16 -16 -17 -18 -19 -19 -18 -17 -18 -18 -17 -17 -17 -16 -15 -14 -14 -13 -13 -13 -13 -12 -12 -12 -12 -11 -10 -9 -8 -6 -5 -5 -4 -4 -3 -3 -3 -3 -2 -2 -2 -2 -2 -2 -1 -0 -0 -0 0 0 0 1 1 1 1 2 2 2 1 1 1 1 2 2 3 3 3 4 4 5 6 7
-16 -16 -16 -16 -17 -18 -19 -19 -18 -18 -19 -18 -18 -18 -17 -16 -15 -14 -13 -13 -13 -12 -12 -11 -11 -11 -10 -9 -9 -8 -7 -6 -5 -5 -4 -3 -3 -3 -3 -3 -2 -2 -2 -2 -2 -2 -1 -1 -0 -0 -0 -0 0 0 0 1 1 1 2 2 2 1 1 1 1 1 2 3 3 4 4 4 5 6
-16 -16 -15 -15 -17 -19 -20 -19 -18 -19 -19 -19 -18 -19 -19 -17 -16 -14 -13 -12 -12 -11 -11 -10 -10 -9 -9 -8 -7 -7 -7 -6 -5 -5 -4 -4 -4 -3 -3 -3 -3 -2 -2 -2 -2 -2 -1 -1 -1 -0 -0 -1 -0 -0 0 0 1 1 1 2 2 1 1 1 0 1 1 2 3 3 4 4 5 6
-16 -16 -15 -15 -16 -18 -19 -18 -18 -19 -19 -19 -18 -19 -20 -19 -17 -16 -14 -13 -12 -11 -10 -9 -9 -8 -7 -7 -7 -7 -6 -6 -5 -5 -5 -4 -4 -4 -3 -3 -3 -3 -3 -3 -2 -2 -2 -1 -1 -1 -1 -1 -1 -1 -0 0 0 1 1 1 1 1 1 0 -0 -0 1 2 2 3 3 4 4 5
-16 -16 -15 -15 -16 -17 -18 -17 -16 -17 -18 -18 -18 -18 -19 -20 -19 -16 -15 -14 -13 -12 -11 -10 -9 -8 -7 -7 -7 -6 -6 -6 -5 -5 -5 -5 -4 -4 -4 -4 -4 -3 -3 -3 -3 -2 -2 -1 -1 -1 -1 -1 -1 -1 -1 -0 0 1 1 1 1 1 0 -0 -1 -1 0 1 2 2 3 3 4 5
-16 -16 -16 -15 -16 -16 -17 -16 -16 -16 -16 -16 -17 -17 -18 -19 -18 -16 -14 -14 -13 -12 -11 -10 -9 -8 -7 -7 -7 -6 -6 -6 -6 -5 -5 -5 -5 -5 -4 -4 -4 -4 -4 -3 -3 -2 -2 -1 -1 -1 -1 -1 -1 -1 -1 -1 -0 0 1 1 1 1 1 -0 -1 -1 -0 0 1 2 2 3 4 4
-17 -16 -16 -16 -16 -16 -16 -16 -16 -15 -15 -15 -16 -16 -16 -16 -15 -15 -14 -14 -13 -12 -11 -10 -9 -8 -7 -7 -6 -6 -6 -6 -6 -6 -5 -5 -5 -5 -5 -5 -5 -5 -4 -3 -3 -2 -2 -2 -2 -2 -2 -2 -1 -1 -1 -1 -1 -0 0 1 1 1 1 0 -1 -1 -1 -0 0 1 2 2 3 4
-17 -17 -16 -16 -16 -16 -16 -16 -15 -15 -15 -15 -15 -15 -15 -14 -14 -14 -13 -13 -13 -12 -11 -10 -9 -9 -9 -8 -8 -7 -7 -6 -6 -6 -6 -5 -5 -5 -5 -5 -5 -5 -4 -4 -3 -3 -3 -2 -2 -2 -2 -2 -1 -2 -2 -1 -1 -1 -1 -0 0 0 0 0 -0 -1 -1 -1 -0 -0 0 1 2 2
-17 -17 -17 -16 -16 -16 -16 -16 -16 -15 -15 -15 -15 -15 -14 -14 -14 -13 -13 -13 -13 -12 -12 -11 -11 -11 -11 -11 -10 -9 -8 -7 -7 -6 -6 -6 -6 -5 -5 -5 -5 -4 -4 -4 -3 -3 -3 -3 -3 -2 -2 -2 -1 -1 -2 -1 -1 -1 -1 -1 -1 -0 -0 -0 -0 -1 -1 -1 -1 -1 -0 0 1 2
-17 -17 -17 -16 -16 -16 -15 -15 -15 -15 -15 -15 -15 -15 -14 -14 -14 -14 -13 -13 -13 -13 -13 -13 -13 -13 -13 -12 -12 -11 -9 -8 -7 -6 -6 -6 -6 -5 -5 -5 -5 -4 -4 -4 -4 -3 -3 -3 -3 -2 -2 -2 -2 -1 -1 -1 -1 -1 -1 -1 -1 -1 -0 -0 -0 -1 -1 -1 -1 -1 -1 0 1 1
-18 -17 -17 -16 -16 -16 -15 -15 -15 -15 -15 -15 -15 -14 -14 -14 -14 -14 -14 -14 -14 -14 -14 -14 -14 -14 -14 -13 -12 -11 -9 -8 -7 -6 -6 -6 -6 -5 -5 -5 -5 -4 -4 -4 -4 -4 -3 -3 -3 -3 -2 -2 -2 -2 -2 -2 -2 -2 -2 -1 -1 -1 -1 -1 -1 -1 -1 -1 -1 -1 -1 -0 0 1
-17 -17 -16 -16 -16 -16 -15 -15 -15 -15 -15 -15 -15 -14 -14 -14 -14 -15 -15 -15 -15 -14 -14 -14 -14 -14 -13 -12 -11 -10 -10 -9 -8 -8 -7 -6 -6 -6 -6 -5 -5 -5 -5 -4 -4 -4 -3 -3 -3 -3 -3 -3 -2 -2 -2 -2 -2 -2 -2 -2 -1 -1 -0 -1 -1 -1 -1 -1 -1 -1 -1 -1 -0 0
-17 -17 -16 -16 -15 -15 -15 -15 -15 -15 -15 -15 -15 -15 -15 -15 -15 -15 -15 -15 -15 -15 -14 -14 -14 -13 -13 -12 -11 -11 -10 -10 -9 -9 -9 -8 -8 -7 -6 -5 -5 -5 -5 -4 -4 -4 -4 -3 -3 -3 -3 -3 -3 -2 -2 -2 -2 -2 -2 -2 -2 -1 -1 -0 -1 -1 -1 -1 -1 -1 -1 -1 -1 -0
-17 -17 -16 -15 -15 -15 -15 -15 -15 -15 -15 -15 -15 -15 -15 -15 -15 -15 -15 -15 -15 -15 -14 -14 -14 -13 -12 -12 -12 -11 -11 -11 -10 -10 -10 -10 -9 -8 -7 -6 -6 -6 -6 -5 -4 -4 -4 -4 -4 -3 -3 -3 -3 -3 -2 -2 -2 -2 -2 -2 -2 -1 -1 -1 -1 -1 -1 -1 -1 -1 -1 -1 -1 -1
-17 -16 -16 -16 -16 -16 -16 -16 -16 -16 -16 -16 -16 -16 -16 -16 -15 -15 -15 -15 -15 -15 -15 -15 -14 -14 -13 -12 -12 -12 -12 -12 -11 -11 -11 -11 -10 -9 -8 -8 -8 -8 -7 -6 -5 -5 -5 -4 -4 -4 -4 -3 -3 -3 -3 -3 -3 -3 -2 -2 -2 -2 -1 -1 -1 -1 -1 -1 -1 -1 -1 -1 -1 -1
-17 -16 -16 -16 -16 -17 -17 -17 -17 -17 -17 -17 -17 -17 -17 -17 -16 -16 -16 -16 -15 -15 -15 -15 -14 -14 -14 -13 -13 -13 -12 -12 -12 -12 -11 -11 -11 -10 -10 -9 -9 -9 -8 -7 -7 -6 -5 -5 -4 -4 -4 -4 -3 -3 -3 -3 -3 -3 -3 -3 -2 -2 -2 -2 -1 -1 -1 -1 -1 -1 -1 -1 -1 -1
-17 -17 -17 -17 -17 -17 -17 -17 -18 -18 -18 -18 -18 -17 -17 -17 -17 -17 -17 -17 -16 -16 -15 -15 -15 -15 -14 -14 -14 -13 -13 -13 -12 -12 -12 -11 -11 -11 -11 -10 -10 -10 -9 -9 -8 -7 -6 -6 -5 -4 -4 -4 -4 -4 -4 -4 -3 -3 -3 -3 -3 -3 -2 -2 -2 -2 -1 -1 -1 -1 -1 -1 -1 -1
-17 -17 -17 -17 -18 -18 -18 -18 -18 -18 -18 -19 -18 -18 -18 -18 -18 -18 -18 -17 -17 -16 -16 -16 -15 -15 -15 -15 -14 -14 -14 -13 -13 -12 -12 -12 -11 -11 -11 -11 -11 -10 -10 -9 -9 -8 -7 -7 -6 -5 -5 -4 -4 -4 -4 -4 -4 -3 -3 -3 -3 -3 -3 -2 -2 -2 -2 -2 -1 -1 -1 -1 -0 -1
-17 -17 -18 -18 -18 -18 -18 -19 -19 -19 -19 -19 -19 -19 -19 -19 -18 -18 -18 -17 -17 -17 -16 -16 -16 -16 -16 -15 -15 -14 -14 -14 -14 -13 -13 -13 -12 -12 -11 -11 -11 -11 -10 -10 -9 -9 -8 -8 -7 -6 -6 -6 -6 -5 -5 -4 -4 -4 -3 -3 -3 -3 -3 -3 -2 -2 -2 -2 -2 -2 -2 -1 -1 -1
-17 -17 -18 -18 -18 -19 -19 -19 -19 -19 -19 -19 -19 -19 -19 -19 -18 -18 -18 -18 -18 -18 -17 -17 -17 -17 -16 -16 -16 -16 -15 -14 -14 -14 -14 -14 -13 -13 -12 -12 -11 -11 -10 -10 -9 -9 -8 -8 -7 -7 -7 -7 -7 -6 -6 -5 -4 -4 -4 -3 -3 -3 -3 -3 -3 -2 -2 -2 -2 -2 -2 -2 -1 -1
-17 -18 -18 -18 -19 -19 -19 -19 -19 -19 -19 -19 -19 -19 -19 -19 -19 -19 -18 -18 -18 -18 -18 -18 -18 -17 -17 -17 -17 -16 -16 -16 -15 -15 -15 -15 -14 -14 -13 -13 -12 -11 -11 -10 -10 -9 -9 -8 -8 -8 -8 -8 -7 -7 -6 -5 -5 -4 -4 -4 -3 -3 -3 -3 -3 -3 -2 -2 -2 -3 -3 -2 -2 -2
-17 -18 -18 -18 -18 -19 -19 -19 -19 -19 -19 -19 -19 -19 -19 -19 -19 -19 -19 -19 -19 -18 -18 -18 -18 -18 -18 -17 -17 -17 -17 -16 -16 -16 -15 -15 -15 -14 -14 -13 -13 -12 -12 -11 -11 -10 -10 -10 -10 -9 -9 -8 -8 -7 -6 -6 -5 -5 -4 -4 -4 -3 -3 -3 -3 -3 -3 -2 -2 -2 -3 -3 -2 -2
-17 -17 -18 -18 -18 -18 -18 -19 -19 -19 -19 -19 -19 -19 -19 -19 -19 -19 -19 -19 -19 -18 -18 -18 -18 -18 -18 -18 -18 -18 -17 -17 -17 -17 -16 -16 -15 -15 -14 -14 -13 -13 -13 -12 -12 -12 -12 -11 -10 -9 -9 -8 -8 -7 -6 -6 -6 -5 -5 -4 -4 -4 -3 -3 -3 -3 -3 -3 -3 -3 -3 -3 -3 -2
-17 -17 -17 -18 -18 -18 -18 -19 -19 -19 -19 -19 -19 -19 -19 -19 -19 -19 -19 -19 -19 -19 -18 -18 -18 -19 -19 -19 -18 -18 -18 -18 -18 -18 -17 -17 -16 -16 -15 -15 -15 -14 -14 -13 -13 -12 -12 -11 -10 -10 -9 -8 -8 -7 -7 -7 -6 -6 -5 -5 -5 -4 -4 -4 -3 -3 -3 -3 -3 -3 -3 -3 -3 -2
-17 -17 -17 -17 -18 -18 -18 -18 -18 -19 -19 -19 -19 -19 -19 -19 -19 -19 -19 -19 -19 -19 -19 -19 -19 -19 -19 -19 -19 -18 -18 -18 -18 -18 -18 -18 -18 -17 -16 -16 -16 -15 -14 -13 -12 -12 -12 -12 -11 -10 -9 -9 -8 -8 -8 -7 -7 -6 -6 -5 -5 -5 -4 -4 -4 -4 -3 -3 -3 -3 -3 -3 -3 -2
-16 -17 -17 -17 -17 -18 -18 -18 -18 -18 -18 -18 -18 -18 -18 -18 -18 -18 -18 -19 -19 -19 -19 -19 -19 -19 -19 -19 -19 -19 -19 -19 -19 -18 -18 -18 -18 -18 -17 -17 -16 -16 -15 -14 -13 -12 -12 -12 -11 -11 -11 -10 -9 -9 -8 -8 -7 -7 -6 -6 -5 -5 -5 -5 -4 -4 -4 -4 -4 -4 -4 -3 -3 -2
Height
1363 1361 1358 1355 1351 1349 1347 1345 1342 1340 1337 1334 1331 1330 1329 1325 1319 1314 1310 1306 1302 1301 1300 1296 1293 1294 1295 1293 1292 1292 1290 1290 1292 1292 1292 1293 1293 1294 1296 1297 1299 1301 1303 1306 1308 1310 1312 1314 1316 1318 1321 1324 1327 1330 1333 1336 1337 1339 1341 1344 1346 1348 1350 1352 1353 1355 1358 1361 1364 1367 1372 1378 1382 1387
1361 1358 1355 1352 1349 1347 1344 1341 1339 1336 1333 1331 1329 1327 1326 1324 1320 1316 1310 1304 1301 1299 1296 1294 1291 1289 1290 1289 1287 1286 1285 1285 1287 1288 1288 1288 1289 1290 1291 1292 1294 1296 1299 1301 1304 1306 1308 1309 1312 1314 1316 1319 1322 1325 1328 1331 1333 1334 1337 1340 1342 1343 1344 1346 1347 1348 1351 1353 1355 1358 1364 1371 1375 1380
1359 1355 1352 1349 1347 1344 1341 1338 1335 1333 1331 1328 1327 1325 1323 1321 1318 1316 1311 1302 1299 1298 1294 1289 1288 1286 1285 1284 1283 1281 1280 1281 1283 1284 1284 1284 1285 1286 1286 1287 1289 1291 1294 1297 1299 1302 1303 1305 1307 1309 1312 1315 1318 1321 1323 1326 1328 1330 1333 1335 1337 1339 1340 1341 1341 1342 1343 1341 1339 1344 1352 1360 1367 1374
1356 1352 1350 1347 1344 1340 1337 1335 1332 1330 1328 1326 1324 1322 1320 1318 1315 1313 1310 1301 1296 1296 1293 1286 1284 1282 1281 1280 1279 1277 1275 1276 1278 1279 1280 1280 1281 1282 1282 1284 1285 1287 1290 1292 1295 1297 1299 1300 1302 1305 1308 1311 1314 1316 1319 1322 1324 1326 1328 1330 1332 1335 1336 1337 1336 1336 1338 1331 1322 1325 1337 1346 1355 1366
1354 1350 1348 1345 1341 1338 1335 1332 1330 1327 1325 1323 1321 1319 1316 1314 1312 1310 1308 1302 1295 1291 1289 1285 1281 1279 1278 1276 1274 1274 1272 1271 1274 1275 1276 1277 1277 1278 1279 1280 1281 1283 1286 1288 1291 1293 1295 1296 1298 1300 1304 1307 1309 1312 1315 1317 1320 1322 1324 1325 1328 1331 1333 1334 1334 1333 1334 1330 1322 1322 1329 1337 1348 1361
1351 1348 1346 1342 1339 1336 1333 1330 1328 1325 1323 1320 1318 1316 1314 1311 1309 1307 1304 1300 1294 1288 1283 1281 1278 1276 1275 1272 1270 1271 1269 1268 1270 1271 1272 1273 1273 1274 1275 1276 1278 1280 1282 1284 1287 1289 1291 1292 1294 1297 1300 1302 1305 1308 1310 1313 1315 1317 1319 1321 1323 1327 1329 1331 1332 1331 1331 1332 1330 1331 1335 1341 1350 1361
1349 1346 1344 1340 1337 1334 1331 1328 1325 1322 1320 1318 1315 1313 1310 1308 1304 1302 1300 1297 1293 1287 1279 1277 1276 1273 1272 1269 1266 1266 1266 1266 1266 1267 1267 1268 1269 1270 1271 1273 1274 1276 1278 1280 1283 1285 1286 1288 1291 1293 1296 1299 1301 1304 1306 1308 1311 1313 1315 1316 1319 1322 1325 1328 1329 1329 1330 1331 1332 1335 1339 1345 1352 1360
1347 1344 1341 1337 1335 1332 1328 1325 1323 1320 1317 1315 1312 1309 1307 1304 1301 1298 1297 1293 1290 1286 1278 1274 1275 1272 1268 1265 1262 1262 1262 1262 1263 1263 1263 1264 1265 1266 1268 1269 1271 1273 1274 1277 1279 1281 1283 1285 1287 1289 1292 1295 1298 1300 1302 1304 1307 1309 1311 1312 1315 1318 1321 1325 1327 1328 1330 1331 1333 1335 1339 1343 1350 1357
1346 1343 1339 1336 1333 1330 1326 1323 1320 1318 1315 1311 1309 1306 1303 1301 1298 1295 1293 1290 1287 1284 1278 1272 1271 1269 1265 1261 1258 1258 1258 1257 1258 1259 1259 1261 1262 1263 1264 1266 1268 1270 1271 1273 1275 1277 1279 1281 1283 1286 1289 1292 1294 1297 1299 1300 1302 1305 1307 1309 1311 1315 1318 1321 1325 1327 1329 1330 1333 1335 1339 1343 1348 1354
1345 1341 1338 1334 1331 1328 1324 1321 1318 1315 1313 1309 1307 1304 1301 1298 1295 1292 1289 1286 1283 1281 1277 1272 1268 1265 1262 1258 1254 1253 1255 1254 1254 1256 1257 1258 1259 1260 1261 1263 1265 1266 1268 1269 1271 1273 1275 1277 1280 1283 1286 1288 1291 1293 1295 1297 1299 1301 1303 1305 1308 1311 1314 1318 1321 1324 1327 1329 1331 1333 1337 1341 1346 1351
1343 1340 1337 1333 1329 1326 1322 1319 1317 1314 1311 1308 1304 1302 1299 1295 1292 1288 1284 1282 1280 1277 1274 1270 1266 1262 1259 1256 1251 1249 1251 1252 1252 1253 1254 1255 1256 1257 1258 1259 1262 1263 1264 1266 1268 1270 1272 1275 1277 1280 1283 1285 1288 1290 1292 1294 1295 1297 1299 1301 1304 1307 1310 1314 1317 1321 1324 1326 1329 1331 1333 1337 1342 1347
1342 1338 1335 1332 1328 1324 1321 1319 1316 1312 1309 1306 1302 1299 1296 1292 1288 1285 1282 1279 1277 1275 1271 1267 1264 1260 1256 1253 1249 1247 1248 1249 1249 1250 1252 1252 1252 1254 1255 1257 1259 1260 1262 1263 1265 1267 1269 1271 1274 1277 1280 1282 1285 1287 1289 1291 1292 1294 1296 1298 1301 1304 1306 1309 1313 1317 1320 1323 1326 1328 1331 1335 1339 1344
1341 1337 1333 1330 1327 1323 1320 1318 1314 1310 1307 1304 1300 1296 1293 1289 1286 1282 1279 1277 1274 1272 1268 1264 1261 1258 1253 1249 1246 1245 1245 1246 1246 1247 1248 1249 1250 1252 1253 1254 1256 1257 1259 1260 1262 1265 1267 1269 1271 1274 1276 1279 1281 1284 1286 1287 1289 1291 1293 1295 1298 1301 1303 1306 1309 1313 1317 1319 1323 1326 1329 1333 1337 1341
1339 1335 1332 1329 1326 1322 1319 1315 1311 1308 1305 1302 1298 1294 1290 1287 1284 1280 1277 1275 1272 1269 1265 1262 1259 1255 1250 1246 1244 1242 1241 1241 1242 1244 1245 1246 1248 1250 1251 1252 1253 1254 1256 1257 1259 1262 1264 1267 1269 1271 1273 1275 1278 1280 1282 1284 1286 1288 1290 1292 1295 1298 1301 1303 1306 1309 1313 1316 1319 1323 1326 1330 1334 1338
1337 1333 1330 1327 1324 1320 1316 1312 1308 1304 1301 1299 1295 1291 1287 1284 1282 1279 1275 1272 1270 1267 1263 1259 1257 1254 1249 1245 1243 1241 1239 1239 1240 1241 1243 1244 1246 1247 1248 1249 1250 1251 1253 1255 1257 1259 1262 1264 1266 1268 1270 1272 1275 1277 1280 1282 1284 1286 1288 1290 1293 1296 1298 1300 1303 1306 1310 1313 1316 1320 1324 1328 1332 1334
1336 1332 1328 1326 1322 1317 1314 1310 1305 1301 1299 1296 1291 1286 1283 1281 1279 1277 1274 1271 1267 1264 1261 1258 1256 1253 1249 1245 1243 1240 1239 1238 1239 1240 1241 1243 1244 1245 1246 1247 1247 1249 1250 1252 1254 1257 1259 1261 1264 1266 1268 1270 1273 1275 1278 1280 1282 1284 1286 1289 1291 1294 1296 1298 1301 1304 1307 1311 1314 1317 1321 1325 1329 1332
1336 1331 1327 1324 1320 1316 1313 1308 1303 1300 1297 1293 1288 1284 1280 1278 1276 1274 1272 1270 1267 1263 1260 1257 1254 1251 1248 1245 1241 1239 1239 1238 1238 1238 1239 1241 1242 1243 1244 1245 1246 1248 1249 1250 1252 1255 1257 1259 1261 1264 1266 1268 1271 1273 1275 1277 1279 1282 1284 1287 1289 1292 1294 1297 1299 1302 1305 1308 1312 1314 1318 1322 1327 1330
1336 1332 1327 1323 1318 1314 1311 1306 1303 1301 1296 1290 1285 1281 1278 1275 1273 1271 1269 1268 1265 1261 1259 1258 1254 1250 1248 1245 1242 1239 1237 1236 1236 1236 1237 1238 1240 1241 1242 1244 1245 1246 1247 1249 1250 1252 1255 1257 1260 1262 1264 1266 1269 1271 1273 1275 1277 1279 1282 1284 1287 1289 1292 1295 1297 1300 1303 1306 1309 1312 1315 1319 1323 1327
1336 1332 1328 1323 1318 1314 1310 1307 1305 1302 1294 1288 1284 1280 1276 1273 1271 1269 1267 1266 1262 1259 1259 1258 1255 1251 1248 1245 1242 1238 1236 1235 1234 1235 1236 1237 1238 1240 1241 1243 1244 1245 1246 1248 1249 1250 1253 1255 1258 1260 1262 1264 1267 1269 1271 1273 1274 1276 1279 1282 1285 1287 1290 1292 1295 1298 1301 1304 1307 1310 1313 1316 1320 1323
1337 1333 1328 1323 1318 1315 1311 1308 1307 1302 1294 1288 1283 1279 1275 1273 1270 1268 1267 1264 1261 1258 1257 1256 1254 1250 1247 1244 1241 1238 1236 1235 1234 1234 1234 1235 1236 1238 1239 1241 1242 1243 1245 1246 1247 1249 1251 1253 1256 1258 1260 1262 1264 1267 1269 1271 1273 1274 1277 1279 1282 1285 1287 1290 1292 1295 1298 1302 1305 1308 1311 1314 1317 1320
1337 1333 1329 1324 1319 1315 1313 1310 1307 1302 1295 1288 1283 1279 1276 1272 1269 1267 1266 1263 1261 1258 1256 1254 1252 1249 1245 1242 1239 1236 1234 1233 1232 1232 1233 1234 1235 1236 1238 1239 1240 1242 1244 1245 1246 1248 1250 1252 1254 1256 1259 1260 1262 1264 1267 1269 1271 1273 1275 1277 1280 1283 1285 1288 1290 1293 1296 1299 1302 1305 1308 1311 1314 1317
1337 1334 1330 1325 1320 1317 1314 1310 1306 1302 1296 1288 1283 1279 1276 1272 1269 1266 1264 1262 1260 1258 1256 1255 1253 1249 1245 1241 1238 1235 1233 1232 1231 1231 1232 1233 1234 1235 1237 1238 1240 1241 1243 1244 1245 1247 1248 1250 1252 1255 1257 1259 1260 1262 1264 1266 1269 1271 1273 1275 1277 1280 1283 1286 1288 1290 1293 1296 1299 1302 1304 1307 1311 1314
1337 1334 1330 1326 1322 1318 1315 1311 1306 1303 1297 1290 1285 1281 1277 1273 1269 1266 1264 1261 1259 1258 1257 1255 1253 1250 1247 1244 1241 1237 1235 1234 1232 1232 1232 1233 1234 1235 1236 1238 1239 1241 1242 1243 1244 1245 1247 1248 1250 1253 1255 1256 1258 1260 1262 1264 1266 1268 1271 1273 1275 1278 1281 1284 1286 1288 1290 1293 1296 1298 1301 1303 1307 1311
1337 1334 1330 1326 1322 1319 1316 1312 1307 1303 1299 1293 1288 1283 1279 1274 1271 1269 1266 1263 1260 1259 1257 1254 1252 1251 1248 1246 1243 1240 1237 1236 1235 1234 1234 1234 1235 1235 1236 1238 1239 1240 1241 1242 1243 1244 1245 1247 1249 1251 1253 1254 1255 1257 1259 1262 1264 1266 1269 1271 1273 1276 1280 1282 1284 1285 1287 1290 1292 1295 1298 1301 1304 1308
1337 1334 1330 1326 1323 1319 1317 1313 1309 1305 1301 1296 1291 1286 1282 1279 1276 1272 1268 1265 1262 1260 1257 1255 1253 1251 1249 1247 1244 1241 1239 1238 1237 1237 1236 1236 1236 1237 1237 1238 1240 1241 1241 1242 1242 1243 1245 1246 1248 1249 1251 1253 1254 1255 1257 1260 1262 1264 1267 1269 1271 1274 1277 1280 1281 1283 1285 1287 1289 1292 1295 1299 1302 1305
1338 1335 1331 1327 1324 1321 1318 1315 1311 1307 1303 1299 1294 1290 1287 1283 1278 1274 1269 1266 1263 1260 1258 1255 1253 1251 1249 1247 1244 1242 1240 1240 1239 1239 1239 1239 1239 1239 1239 1239 1241 1241 1242 1242 1242 1243 1244 1245 1247 1248 1250 1251 1253 1254 1256 1258 1260 1262 1265 1267 1270 1273 1276 1278 1280 1281 1282 1284 1287 1290 1293 1296 1299 1303
1339 1336 1332 1329 1326 1323 1320 1317 1313 1309 1305 1301 1297 1294 1290 1285 1280 1276 1271 1268 1264 1261 1258 1255 1253 1251 1249 1248 1246 1244 1243 1243 1242 1242 1242 1242 1242 1242 1241 1242 1242 1242 1242 1242 1242 1243 1244 1245 1246 1248 1249 1250 1252 1253 1255 1256 1258 1261 1263 1265 1268 1271 1274 1276 1278 1279 1281 1283 1285 1288 1291 1293 1297 1300
1339 1336 1333 1330 1328 1325 1322 1319 1315 1311 1307 1303 1300 1296 1292 1287 1282 1277 1273 1270 1266 1262 1259 1257 1255 1253 1252 1250 1248 1247 1246 1246 1246 1245 1245 1244 1245 1245 1244 1244 1244 1244 1243 1243 1243 1244 1245 1246 1247 1248 1249 1250 1251 1252 1254 1256 1257 1259 1261 1264 1266 1269 1271 1274 1277 1278 1279 1281 1283 1286 1288 1290 1293 1297
1340 1338 1335 1332 1329 1326 1323 1320 1317 1313 1309 1306 1302 1298 1294 1289 1284 1280 1276 1273 1269 1265 1263 1261 1260 1257 1256 1254 1253 1251 1251 1249 1248 1248 1247 1247 1247 1247 1246 1246 1246 1245 1245 1245 1245 1245 1245 1246 1247 1248 1249 1250 1251 1252 1253 1255 1257 1259 1261 1263 1265 1267 1270 1272 1275 1277 1278 1279 1281 1283 1286 1288 1291 1293
1341 1339 1336 1333 1330 1327 1324 1321 1317 1314 1310 1307 1304 1300 1296 1291 1286 1283 1279 1276 1273 1270 1268 1266 1263 1261 1259 1258 1256 1255 1253 1251 1250 1249 1249 1248 1248 1248 1248 1248 1247 1246 1246 1246 1246 1246 1246 1247 1248 1249 1249 1250 1251 1252 1253 1255 1257 1259 1260 1262 1264 1266 1268 1270 1273 1275 1277 1278 1280 1282 1284 1287 1290 1291
1341 1339 1336 1333 1330 1328 1325 1322 1318 1315 1311 1308 1305 1301 1298 1294 1290 1286 1283 1280 1277 1275 1272 1269 1266 1264 1262 1260 1258 1256 1254 1253 1252 1251 1251 1250 1250 1250 1250 1250 1249 1248 1248 1248 1248 1248 1248 1248 1249 1249 1250 1251 1252 1253 1254 1255 1257 1259 1260 1262 1264 1266 1267 1269 1271 1273 1276 1277 1279 1281 1283 1285 1288 1291
1340 1338 1336 1333 1331 1328 1325 1322 1319 1316 1312 1309 1306 1303 1300 1297 1293 1290 1287 1284 1281 1278 1276 1273 1270 1267 1264 1262 1259 1257 1256 1255 1254 1254 1253 1252 1252 1252 1252 1251 1251 1250 1250 1250 1250 1250 1250 1250 1250 1251 1251 1252 1253 1254 1255 1256 1257 1259 1260 1262 1264 1266 1267 1269 1270 1272 1274 1276 1278 1280 1281 1283 1286 1289
1340 1338 1336 1333 1330 1327 1324 1321 1318 1315 1312 1310 1307 1305 1302 1299 1296 1293 1290 1286 1284 1281 1279 1276 1273 1270 1267 1264 1262 1260 1258 1257 1257 1256 1255 1255 1255 1254 1253 1253 1253 1253 1252 1252 1252 1251 1251 1252 1252 1252 1253 1253 1254 1255 1256 1257 1258 1259 1261 1262 1264 1266 1267 1269 1270 1271 1273 1275 1276 1279 1280 1282 1284 1287
1340 1338 1335 1332 1329 1326 1324 1321 1318 1315 1313 1311 1308 1306 1304 1301 1298 1295 1292 1290 1287 1285 1282 1279 1276 1273 1270 1267 1266 1264 1262 1261 1260 1259 1258 1258 1257 1255 1255 1254 1255 1255 1255 1254 1254 1253 1253 1253 1253 1254 1254 1255 1255 1256 1257 1258 1259 1260 1261 1263 1264 1265 1267 1269 1270 1271 1272 1274 1275 1277 1279 1281 1283 1286
1340 1337 1335 1332 1330 1327 1325 1322 1319 1317 1314 1312 1310 1308 1305 1303 1300 1297 1295 1293 1290 1288 1286 1283 1280 1277 1274 1272 1270 1268 1267 1265 1264 1263 1261 1260 1259 1258 1257 1257 1257 1257 1257 1257 1256 1256 1255 1255 1255 1255 1255 1256 1257 1257 1258 1259 1260 1261 1263 1263 1264 1266 1267 1268 1270 1271 1272 1274 1275 1276 1278 1280 1282 1284
1339 1337 1335 1333 1331 1328 1326 1324 1321 1319 1316 1314 1312 1309 1307 1305 1302 1300 1297 1296 1294 1291 1288 1286 1283 1280 1278 1276 1275 1273 1271 1269 1267 1265 1264 1263 1261 1261 1261 1260 1260 1260 1260 1259 1259 1258 1258 1257 1257 1257 1257 1257 1257 1258 1259 1260 1261 1262 1263 1264 1265 1266 1267 1268 1269 1270 1272 1273 1275 1276 1277 1279 1281 1283
1340 1338 1336 1334 1332 1330 1328 1326 1324 1321 1319 1317 1314 1312 1309 1307 1305 1303 1301 1299 1297 1294 1291 1289 1286 1284 1282 1281 1279 1277 1275 1273 1271 1269 1267 1266 1265 1264 1263 1263 1263 1263 1262 1261 1261 1260 1260 1260 1259 1259 1258 1258 1259 1259 1260 1261 1262 1263 1263 1264 1265 1266 1268 1268 1269 1270 1271 1272 1274 1275 1277 1278 1280 1282
1340 1338 1337 1335 1333 1331 1330 1328 1326 1323 1321 1319 1317 1315 1312 1311 1309 1306 1304 1302 1299 1297 1294 1292 1290 1288 1286 1284 1282 1280 1279 1277 1275 1273 1271 1270 1268 1267 1266 1266 1266 1265 1265 1264 1263 1263 1262 1262 1261 1261 1260 1260 1261 1261 1262 1263 1263 1264 1264 1265 1265 1266 1268 1269 1269 1270 1271 1272 1273 1274 1276 1279 1281 1283
1341 1339 1338 1336 1334 1333 1331 1329 1327 1325 1323 1321 1319 1317 1315 1313 1311 1309 1306 1304 1302 1299 1297 1295 1293 1291 1289 1287 1285 1284 1282 1280 1278 1276 1275 1274 1272 1271 1270 1269 1268 1267 1266 1266 1265 1264 1264 1264 1263 1263 1263 1263 1263 1263 1264 1264 1264 1265 1265 1265 1266 1267 1268 1269 1270 1270 1271 1272 1272 1274 1275 1278 1280 1283
1341 1340 1339 1337 1335 1334 1332 1331 1329 1327 1325 1323 1321 1319 1317 1315 1313 1310 1308 1306 1304 1302 1300 1298 1296 1294 1292 1290 1288 1287 1285 1283 1282 1280 1279 1278 1276 1275 1274 1272 1271 1269 1268 1267 1266 1266 1265 1265 1265 1265 1265 1265 1265 1265 1265 1265 1265 1265 1265 1266 1267 1267 1268 1269 1270 1271 1271 1272 1272 1273 1275 1276 1278 1280
1342 1341 1339 1338 1336 1335 1334 1332 1331 1329 1327 1325 1323 1321 1319 1317 1315 1313 1311 1309 1307 1305 1303 1301 1299 1296 1294 1292 1290 1289 1287 1285 1284 1283 1282 1280 1279 1278 1276 1275 1273 1271 1270 1269 1268 1267 1267 1267 1267 1267 1267 1266 1266 1266 1266 1265 1265 1265 1266 1266 1267 1267 1268 1269 1269 1270 1271 1272 1273 1274 1275 1276 1277 1279
1343 1341 1340 1339 1338 1336 1335 1333 1332 1330 1329 1327 1325 1323 1321 1319 1317 1315 1313 1311 1309 1307 1305 1303 1301 1299 1297 1295 1293 1291 1289 1287 1286 1285 1283 1282 1281 1279 1278 1276 1275 1273 1272 1271 1270 1270 1270 1269 1269 1268 1268 1267 1267 1267 1266 1266 1266 1266 1266 1267 1267 1268 1268 1269 1270 1270 1271 1272 1273 1274 1275 1276 1277 1278
1343 1342 1341 1340 1338 1337 1336 1334 1333 1331 1330 1328 1326 1325 1323 1321 1319 1317 1315 1313 1311 1309 1307 1305 1303 1301 1299 1297 1296 1294 1292 1290 1288 1287 1285 1283 1282 1281 1280 1278 1277 1276 1275 1274 1274 1272 1271 1270 1269 1269 1268 1268 1268 1267 1267 1267 1267 1267 1267 1267 1268 1268 1269 1269 1270 1271 1271 1272 1273 1274 1275 1276 1277 1277
1343 1342 1341 1340 1339 1338 1336 1335 1334 1332 1331 1329 1327 1326 1324 1322 1320 1318 1316 1314 1312 1310 1308 1306 1304 1302 1301 1299 1298 1296 1294 1292 1291 1289 1287 1286 1284 1283 1282 1281 1280 1278 1277 1276 1275 1274 1272 1271 1270 1269 1269 1268 1268 1268 1268 1267 1267 1267 1267 1267 1268 1268 1269 1269 1270 1271 1272 1272 1273 1274 1275 1276 1276 1277
1344 1343 1342 1341 1340 1338 1337 1336 1334 1333 1331 1330 1328 1326 1325 1323 1321 1319 1317 1315 1313 1311 1309 1307 1305 1304 1302 1300 1299 1297 1296 1294 1293 1291 1289 1288 1286 1285 1283 1282 1281 1280 1278 1277 1275 1274 1273 1272 1271 1270 1269 1269 1269 1268 1268 1268 1268 1268 1268 1268 1268 1268 1269 1270 1270 1271 1272 1272 1273 1274 1275 1276 1277 1277
Wind_Speed
22 24 29 29 26 25 26 26 24 22 26 32 35 30 26 26 27 27 28 30 31 30 30 33 36 33 32 33 31 27 25 24 23 22 21 21 20 19 23 27 27 28 30 30 30 30 30 34 39 42 44 45 47 50 50 49 47 45 44 43 40 37 40 45 48 50 54 56 60 65 70 76 77 75
25 29 31 27 24 26 28 28 28 28 30 30 27 24 24 25 27 28 31 33 33 32 32 33 36 38 39 39 37 32 29 25 24 24 24 23 20 18 21 26 27 28 30 30 30 29 30 33 37 40 43 44 45 46 49 52 50 47 47 46 41 36 37 43 47 51 52 53 61 68 71 77 79 75
29 32 28 24 26 28 27 26 27 26 24 23 23 23 24 25 27 27 30 33 32 30 33 36 40 43 43 42 40 35 30 26 24 24 25 25 21 18 19 24 27 28 30 31 30 30 30 32 35 39 41 42 43 44 47 52 52 49 49 49 44 38 37 41 45 50 50 50 62 73 74 80 82 74
32 30 24 26 30 29 24 22 24 23 21 21 22 23 24 25 26 26 27 32 34 32 35 40 43 43 41 42 41 36 32 27 24 23 25 24 22 19 18 23 26 28 29 31 31 30 30 32 35 37 39 40 42 43 45 49 52 51 51 53 48 41 38 38 40 45 44 39 54 78 83 86 86 75
33 27 24 30 33 27 23 23 25 25 24 23 22 23 24 25 24 24 26 30 34 35 38 40 42 42 40 40 39 36 33 28 24 23 24 23 21 19 17 20 23 26 28 30 31 31 30 32 35 37 38 39 40 42 43 46 49 51 52 53 50 43 38 34 33 40 40 28 40 68 75 77 76 68
32 25 26 33 31 25 24 25 26 26 24 25 26 27 27 27 27 26 27 30 32 36 40 40 40 39 36 36 38 36 32 29 25 23 23 21 20 19 18 18 20 23 27 29 29 30 30 31 34 36 37 38 39 41 42 42 44 48 50 51 50 45 40 33 28 35 41 33 35 52 56 56 57 57
31 26 29 31 27 24 26 26 25 25 24 26 29 29 28 29 31 30 30 32 33 37 42 39 35 34 34 37 39 35 30 29 26 24 22 20 19 20 20 20 20 21 24 27 28 29 30 31 33 36 36 37 38 39 40 40 41 43 46 48 48 46 43 37 30 30 37 37 36 45 52 54 57 58
31 29 30 28 24 24 26 25 24 24 25 27 29 30 29 31 33 31 30 32 33 36 40 38 33 33 36 39 37 31 27 27 26 23 21 19 19 20 22 23 22 21 22 26 27 27 29 30 33 35 36 36 37 38 38 38 39 40 41 43 44 44 44 41 33 29 31 33 36 43 49 53 56 58
32 31 29 25 24 25 25 25 24 24 26 28 29 31 33 32 30 29 29 30 31 32 35 36 34 34 36 38 34 27 25 25 23 21 19 19 19 20 22 24 24 21 22 25 26 27 28 30 32 34 35 36 36 36 36 36 36 38 38 39 40 41 43 41 36 31 29 27 32 42 47 46 49 54
33 32 27 23 24 24 25 25 26 27 29 28 30 33 32 30 29 31 31 31 30 29 30 33 34 34 35 37 32 23 20 22 19 17 18 19 20 21 22 24 24 21 22 25 26 27 28 30 32 33 34 35 35 35 35 34 34 36 36 36 37 38 40 40 39 35 31 27 26 34 45 47 48 51
35 32 26 23 24 24 25 27 29 30 30 29 31 31 30 31 34 33 30 28 26 26 27 29 31 33 34 33 28 19 15 18 18 18 20 21 20 21 22 23 22 21 22 25 26 26 27 29 31 32 32 34 35 34 33 33 32 33 34 35 35 36 37 39 41 38 33 30 28 28 38 47 49 48
36 32 26 23 25 25 24 26 27 27 26 29 30 30 32 35 32 27 26 25 24 24 26 28 29 31 31 28 25 19 13 16 19 20 22 22 20 20 20 20 19 20 22 24 25 25 26 28 30 31 31 33 34 34 33 32 31 31 32 33 33 34 36 37 41 41 36 33 31 28 31 38 45 48
36 33 28 24 25 25 21 22 24 24 23 24 27 31 34 31 25 24 25 24 23 23 25 26 26 28 28 26 24 21 14 13 18 19 19 20 19 17 17 17 18 19 21 24 25 25 25 27 29 31 31 32 33 34 33 32 31 30 30 30 31 32 35 37 39 42 40 35 32 31 31 32 39 45
36 35 30 25 26 25 21 22 27 27 21 21 28 33 31 24 21 23 24 23 23 23 23 24 24 26 28 26 24 22 16 10 13 15 16 19 18 16 16 17 18 19 21 24 26 26 25 26 27 29 31 32 33 34 34 32 31 30 29 28 29 30 34 37 38 41 43 39 34 34 36 34 35 41
37 36 31 28 28 28 25 26 32 30 21 24 35 34 23 16 16 18 21 23 21 19 20 22 22 23 27 25 22 20 15 7 10 13 15 18 19 18 18 18 18 19 21 24 26 26 25 25 26 26 27 30 31 33 33 32 30 30 28 27 27 29 33 36 38 41 43 42 38 37 40 40 35 33
36 36 33 30 30 31 29 31 36 33 26 33 39 29 16 11 10 11 15 16 14 14 18 21 20 21 24 22 19 17 13 7 10 13 15 18 20 19 18 17 16 17 19 24 26 26 26 26 25 24 24 25 27 28 29 29 29 29 28 26 26 28 31 36 38 40 42 43 41 40 42 44 40 29
36 35 34 32 33 34 33 35 39 36 34 39 36 22 14 12 9 9 10 8 6 9 15 19 19 17 18 18 16 14 11 8 8 13 15 17 20 20 17 15 12 12 16 22 26 26 26 25 25 24 23 23 23 23 24 25 27 29 28 26 25 26 29 34 37 39 40 41 42 43 43 45 45 35
35 34 33 33 34 35 36 38 39 36 38 40 33 22 17 15 11 10 10 7 7 11 12 14 14 12 11 12 13 11 8 7 7 11 15 16 17 18 16 13 11 10 12 18 24 26 26 26 24 23 23 23 22 21 21 21 24 28 29 27 25 25 27 31 35 37 39 40 40 43 44 45 47 42
33 33 32 32 33 35 37 38 36 34 38 38 30 24 22 18 14 12 11 10 12 15 13 12 12 13 12 11 12 12 6 6 8 9 13 14 13 14 14 13 13 13 12 16 22 25 26 27 25 22 22 23 22 21 20 19 21 25 29 29 26 23 23 27 33 36 37 40 40 40 43 45 48 47
32 32 32 31 32 35 37 36 33 33 36 35 29 26 26 21 16 13 10 10 12 13 13 13 15 17 18 17 17 16 8 3 9 10 12 12 11 12 13 14 15 15 14 16 21 23 24 26 26 23 22 22 22 22 22 21 20 21 25 29 29 25 22 23 30 35 35 38 39 38 40 42 44 47
31 30 30 30 31 34 35 34 32 33 34 32 29 28 28 25 20 16 11 8 9 11 12 13 15 16 19 20 19 17 12 5 8 11 12 11 10 11 12 14 16 16 15 17 21 21 21 24 25 24 23 22 23 23 23 23 22 20 22 26 29 29 24 22 27 33 35 36 38 38 40 41 41 42
30 29 29 29 30 32 32 31 30 32 33 31 29 29 30 28 25 22 16 10 7 6 6 8 10 13 16 19 19 18 16 12 7 7 9 9 10 11 11 13 16 16 15 18 22 21 20 21 23 23 22 22 22 23 23 24 24 22 22 24 27 29 28 23 24 31 36 37 39 38 39 41 40 38
29 29 29 29 29 29 29 29 29 30 30 30 29 29 30 30 28 24 20 17 12 7 5 6 8 10 13 16 19 22 23 20 16 14 13 11 11 11 10 9 12 13 15 17 20 20 20 20 21 22 21 20 20 22 23 24 25 24 22 23 26 28 28 24 23 29 36 38 40 40 39 41 42 39
30 29 28 29 29 29 29 30 30 30 30 30 30 29 29 30 28 23 18 18 18 15 11 9 9 10 12 14 18 22 24 25 24 22 20 18 16 15 13 11 8 8 11 14 16 18 19 19 20 21 21 18 18 21 23 23 25 25 23 24 25 27 27 24 22 29 36 38 40 41 39 40 43 42
30 29 28 29 29 29 29 30 31 31 31 31 32 31 29 27 25 22 18 17 18 16 12 10 8 8 10 13 16 20 22 24 26 26 24 23 22 20 19 17 13 10 7 8 11 15 18 19 20 21 21 17 16 19 22 23 24 25 23 23 24 25 26 23 21 27 34 35 37 41 41 41 43 43
28 28 27 28 27 27 28 29 30 31 31 32 32 31 29 27 26 25 24 22 20 18 15 13 12 11 11 13 16 19 20 21 23 24 24 25 24 23 22 21 18 15 12 7 6 10 15 18 20 21 21 18 15 17 21 22 23 24 23 22 24 25 25 22 19 24 33 34 34 37 38 40 43 43
27 26 25 25 25 25 26 27 28 30 31 32 33 32 30 31 31 30 29 28 26 23 21 19 18 17 17 18 20 21 20 19 19 20 20 22 23 22 22 21 18 15 15 14 10 8 12 16 18 18 20 18 15 17 21 22 22 24 23 22 23 23 24 22 19 21 29 34 35 34 33 35 38 40
26 25 24 24 23 23 24 25 27 29 30 31 32 32 33 33 35 35 34 34 32 31 29 26 24 25 25 24 23 23 21 18 16 15 15 17 19 20 20 19 16 14 14 16 17 14 11 12 12 12 14 15 15 17 20 21 21 23 24 23 23 22 22 22 20 19 23 30 34 35 35 35 37 38
24 23 21 21 21 22 23 24 25 27 29 30 31 33 34 35 37 38 38 37 37 36 34 32 30 28 26 24 23 23 19 15 13 13 12 13 14 15 17 17 16 15 14 14 16 17 15 12 10 9 9 10 13 17 20 20 20 22 23 23 23 23 22 22 21 20 20 25 31 35 37 37 38 39
22 20 19 19 19 20 22 23 25 26 28 30 31 32 34 36 38 39 40 40 40 39 37 36 34 32 28 24 22 21 19 16 15 14 14 12 11 12 13 14 15 16 16 14 13 14 16 15 13 10 9 9 10 14 18 19 19 20 21 22 23 23 22 22 21 21 19 20 25 30 34 36 38 40
21 20 18 18 19 19 20 22 24 26 27 29 31 32 34 36 37 39 40 40 41 40 39 38 37 35 32 27 23 22 21 20 19 18 17 15 15 13 10 10 13 15 16 15 13 12 12 14 14 12 10 10 10 9 11 15 19 20 18 18 19 21 22 23 22 21 21 20 19 22 27 31 35 38
21 19 18 17 17 18 19 21 22 25 27 28 30 32 33 35 35 37 38 38 39 40 40 39 38 37 36 33 30 27 24 23 22 21 20 19 18 15 11 10 12 13 13 12 12 11 11 10 11 13 12 10 10 10 9 9 14 19 19 18 17 17 18 21 22 21 21 21 20 20 21 24 28 34
20 18 17 18 18 19 21 22 24 26 27 29 30 31 33 33 34 35 36 38 39 39 39 39 39 38 37 37 35 33 30 27 24 22 22 21 18 16 14 15 16 16 15 13 12 11 11 9 8 10 11 10 10 9 10 10 10 11 16 19 19 17 17 18 19 20 21 22 22 21 20 20 21 25
18 18 19 20 21 22 23 25 26 28 29 30 31 32 32 33 33 34 35 37 37 38 38 39 39 39 38 37 37 36 35 32 27 23 22 21 19 18 17 17 17 17 17 16 14 12 11 10 8 7 8 9 10 10 9 9 10 9 9 12 15 17 18 18 18 18 20 21 21 21 21 20 20 20
18 19 20 21 22 23 24 26 27 28 29 30 31 31 32 33 33 34 34 35 35 35 36 37 37 38 38 38 37 36 36 34 31 27 23 22 22 22 21 20 19 18 17 16 16 15 13 12 10 8 8 8 9 10 11 9 8 8 8 7 7 11 15 18 19 19 19 19 19 20 21 21 21 20
18 20 20 21 22 23 24 25 26 27 28 29 30 30 32 32 33 33 34 33 33 33 34 35 36 36 37 36 36 36 35 34 34 31 28 25 23 23 23 22 20 19 18 17 17 16 15 14 12 10 9 9 9 9 9 9 8 7 7 6 6 6 9 13 16 19 20 20 19 20 21 21 21 21
18 19 20 21 22 23 23 24 25 26 27 28 28 29 31 31 31 31 31 31 31 32 32 33 34 34 35 34 34 34 34 34 34 33 31 29 25 23 23 23 22 20 19 17 16 16 16 15 14 12 10 9 9 7 6 6 6 6 6 6 6 5 6 8 10 14 19 21 21 21 21 21 21 21
18 18 19 20 21 22 22 23 24 25 26 26 27 28 28 29 29 29 29 29 30 30 30 31 32 32 33 33 33 33 33 33 33 33 33 31 29 27 25 24 22 21 20 17 15 14 14 15 14 13 12 11 10 8 6 4 3 3 3 4 5 4 4 4 6 8 12 18 21 22 22 22 22 22
17 18 19 19 20 21 22 22 23 24 25 26 27 27 28 28 28 28 29 29 29 29 29 30 30 30 31 31 32 32 32 32 32 32 33 32 31 30 27 25 23 21 20 18 16 13 12 12 13 13 13 12 11 9 8 6 4 3 2 1 2 3 3 3 4 4 6 11 16 19 21 22 23 23
17 17 18 19 19 20 21 22 23 24 24 25 26 27 28 28 28 29 29 29 29 29 29 29 30 29 29 30 30 30 30 31 31 31 31 31 30 30 28 27 25 23 21 19 18 17 14 13 13 13 12 12 11 8 7 7 6 5 4 2 1 1 2 2 4 5 4 6 10 14 16 19 21 23
16 16 17 18 19 19 20 21 22 23 24 24 25 26 27 27 28 28 29 29 29 29 29 29 30 30 30 30 30 29 29 29 30 29 29 28 28 28 28 27 26 25 24 22 21 19 18 15 13 12 10 10 8 6 5 5 5 5 5 3 1 2 2 2 4 5 5 5 7 11 13 14 16 19
15 16 16 17 18 19 20 20 21 22 23 23 24 24 25 26 26 26 26 27 27 28 28 29 29 30 30 30 30 30 29 29 29 29 28 27 27 26 27 27 27 26 26 24 22 20 18 15 12 9 8 8 6 5 4 5 4 4 4 3 1 2 3 4 5 6 6 5 5 8 11 12 13 15
14 15 16 16 17 18 19 19 20 21 22 23 24 24 24 25 25 25 25 26 26 27 27 27 28 28 28 29 29 29 29 29 29 29 29 28 28 27 26 26 26 25 24 22 20 19 17 14 12 10 7 6 5 4 4 4 4 3 3 3 2 1 3 5 5 6 8 8 6 6 7 9 11 12
13 13 14 15 16 17 18 18 20 20 21 22 23 24 24 25 25 26 26 26 26 26 26 26 27 27 27 27 27 27 28 28 29 28 28 28 28 27 26 24 23 23 22 20 18 16 15 15 14 11 9 7 6 5 4 3 3 4 4 4 3 2 2 4 5 6 7 9 9 8 7 6 6 7
11 12 13 14 15 16 17 18 19 20 21 22 22 23 24 25 25 26 26 26 26 26 25 25 26 26 26 26 26 26 26 26 26 26 27 27 27 27 26 25 23 22 22 21 20 18 16 14 13 11 9 9 7 6 5 5 3 2 4 5 6 5 3 3 5 6 7 8 9 9 9 8 7 7
Wind_Direction
317 313 321 320 310 307 308 302 292 284 285 294 297 291 287 293 299 301 300 296 296 298 299 298 299 300 301 301 298 291 277 260 253 252 250 259 264 247 233 231 230 231 233 233 232 231 231 230 229 229 230 231 230 228 227 226 225 222 221 222 224 226 229 229 229 230 231 232 232 228 223 217 213 210
316 320 327 326 313 308 309 302 293 289 291 296 298 290 287 292 293 295 295 291 290 295 296 294 295 297 299 300 298 292 279 263 258 256 250 252 255 245 233 229 228 229 229 230 229 230 231 229 229 229 229 231 231 230 227 226 227 224 220 221 222 225 230 231 231 232 234 237 233 227 223 217 212 209
323 327 329 323 313 311 310 304 301 302 301 299 297 292 290 290 288 287 287 286 287 291 293 293 295 297 298 300 300 294 280 265 259 259 255 253 254 250 238 227 225 227 226 226 226 229 231 229 227 227 228 229 229 229 227 225 226 226 222 222 222 226 233 235 235 233 238 246 234 223 220 214 209 206
330 332 326 316 314 315 313 307 308 312 309 302 298 296 294 290 288 286 284 285 288 290 293 295 295 296 298 299 299 295 283 264 255 258 258 256 256 254 240 227 226 226 224 224 224 227 231 229 227 225 226 228 228 228 228 225 226 226 226 225 225 228 232 237 240 235 239 247 225 212 208 205 202 200
337 334 321 315 318 320 316 313 314 315 316 315 312 310 306 298 293 290 285 285 288 293 297 297 295 296 298 297 297 296 285 265 252 258 259 256 256 252 241 232 228 227 225 224 224 226 231 230 227 225 224 225 226 227 227 226 225 226 228 229 227 227 228 233 238 233 236 232 198 194 194 192 191 195
340 332 319 318 321 323 321 319 318 317 318 320 320 320 315 309 306 305 297 290 288 293 299 299 297 297 297 295 294 295 287 269 260 263 257 253 254 249 244 238 231 229 226 223 223 226 230 232 228 224 223 223 223 224 225 225 225 226 229 231 230 227 224 228 232 228 232 229 193 181 185 188 191 198
340 330 322 324 324 323 323 321 319 318 320 322 322 321 319 316 317 317 311 300 292 294 298 299 298 296 295 293 294 295 287 271 266 264 252 249 254 249 245 240 233 230 225 222 223 225 229 232 228 224 222 221 221 221 222 223 225 227 230 232 232 227 223 225 230 224 221 224 208 188 185 192 199 204
340 332 327 327 325 325 325 322 320 320 323 325 324 322 322 322 321 319 314 306 299 296 295 295 294 293 293 295 297 294 283 270 264 258 249 250 256 251 244 239 234 230 224 221 222 225 229 230 227 223 221 219 218 219 220 221 224 227 231 233 232 229 225 223 226 223 213 212 211 199 189 190 196 199
342 335 331 329 328 330 329 326 325 327 328 328 325 324 324 324 321 315 309 303 298 292 290 292 294 292 294 298 298 291 279 270 259 249 249 255 258 252 243 237 234 230 224 221 220 224 228 227 224 222 220 218 217 217 218 220 223 227 231 233 232 228 227 223 219 222 221 212 207 202 196 196 199 199
342 338 334 331 333 335 334 333 332 329 327 325 323 324 323 321 316 309 304 299 295 290 289 292 293 292 295 300 298 289 276 267 255 248 256 259 253 247 240 233 231 229 224 220 219 223 226 225 221 219 218 217 215 216 218 219 221 226 229 232 231 227 225 223 217 218 224 223 214 202 197 198 202 204
343 341 338 336 340 342 338 334 329 325 323 321 322 322 319 315 312 307 303 300 296 295 294 293 291 293 299 303 303 298 277 260 254 256 262 257 243 237 235 230 228 229 226 221 219 222 224 222 219 219 218 216 214 215 217 218 220 224 227 230 230 226 223 221 218 218 220 224 225 213 200 198 200 203
345 343 343 342 346 348 340 332 331 331 327 323 322 319 315 314 312 307 304 302 301 300 297 293 292 297 304 310 315 316 288 256 254 257 255 247 233 229 233 233 229 229 227 220 218 220 219 217 216 217 217 216 215 215 216 218 219 222 226 228 228 224 221 218 217 217 218 221 223 220 210 205 205 207
346 346 346 346 351 353 345 340 345 345 337 327 320 318 318 317 313 309 308 309 309 305 299 296 298 304 311 320 328 331 313 267 256 257 247 237 231 229 235 236 230 229 226 219 216 216 215 215 216 216 217 216 215 215 216 217 219 221 224 227 227 223 219 218 216 214 215 217 218 218 216 214 213 213
347 347 346 346 353 357 353 352 354 352 342 327 318 319 321 317 314 315 315 315 313 304 300 303 307 312 319 328 336 334 323 281 250 248 236 227 229 232 236 235 228 226 223 218 214 211 211 214 217 218 219 218 215 215 217 218 218 219 221 224 226 222 217 217 216 213 211 211 212 216 222 224 220 217
348 347 346 347 354 359 359 356 355 354 344 325 321 323 321 313 316 322 320 317 311 302 306 312 315 319 323 330 341 338 322 275 231 229 224 224 227 228 230 232 227 223 220 215 212 208 208 213 216 218 218 216 215 215 217 220 220 219 220 223 224 221 215 215 215 212 210 209 208 213 223 229 227 219
349 347 346 347 355 1 360 355 356 355 340 326 327 329 325 318 324 331 325 315 305 311 323 319 315 323 325 329 346 349 333 290 226 214 213 220 224 224 226 228 228 228 220 214 210 206 207 211 213 215 213 210 212 215 218 222 222 219 219 221 224 222 216 214 214 213 211 211 211 211 218 226 229 229
350 349 346 347 356 1 359 357 358 352 335 328 333 339 341 339 342 345 339 323 318 344 339 319 315 331 334 334 350 356 332 298 238 213 210 215 218 222 227 225 227 234 224 213 208 204 206 210 210 210 210 209 211 214 218 222 221 216 215 217 222 224 220 215 213 212 211 212 214 214 215 221 226 231
352 350 347 350 358 1 358 358 357 347 333 333 341 351 357 356 355 356 350 345 14 27 4 328 325 349 354 347 1 5 326 288 250 224 217 215 216 222 228 228 228 239 233 216 207 204 205 208 208 209 209 210 211 212 215 220 218 215 213 215 219 224 223 219 215 213 211 211 214 217 217 221 223 226
354 351 349 354 1 2 358 355 353 345 336 337 347 359 5 4 4 7 358 352 17 35 27 3 2 23 34 33 34 30 353 270 242 228 221 215 216 221 227 231 231 237 238 218 206 204 206 206 207 209 209 210 211 210 212 216 217 215 214 216 219 222 224 222 217 214 213 211 213 216 218 221 222 222
356 353 353 357 3 4 357 351 352 349 340 342 353 2 6 9 11 14 8 359 16 32 29 19 23 36 46 53 57 57 50 215 206 204 207 207 211 216 222 229 230 233 236 218 204 204 207 207 208 212 213 213 212 212 213 215 216 217 217 217 219 221 223 224 219 216 215 213 212 214 215 218 220 220
358 358 358 360 6 5 354 349 355 354 345 349 1 4 7 11 13 14 16 9 15 27 26 21 24 36 48 55 62 67 69 103 175 191 197 198 200 206 215 224 227 227 227 215 205 204 206 207 208 212 215 215 213 213 214 215 217 219 219 218 219 220 222 227 222 216 215 213 210 211 212 212 214 217
360 1 1 4 8 4 354 353 1 358 352 358 7 7 8 12 14 12 12 10 14 26 22 14 23 40 52 58 64 69 70 76 113 156 163 167 176 182 196 214 218 216 215 212 208 206 205 205 206 207 209 211 213 213 213 214 216 218 219 218 218 219 221 228 227 218 214 212 208 208 210 209 209 212
2 2 3 7 12 9 2 5 11 7 3 7 13 12 10 12 15 13 11 12 17 18 355 346 12 40 54 61 66 69 72 75 82 95 106 122 142 151 162 185 199 200 201 205 208 208 206 203 202 202 202 203 208 212 212 211 212 213 217 218 216 215 218 225 230 222 215 212 209 208 208 207 207 208
2 2 5 9 14 14 12 14 18 18 16 16 19 21 18 15 15 17 18 21 22 20 11 2 9 28 43 53 62 69 73 75 76 77 81 90 102 110 116 126 144 166 184 196 205 208 210 207 202 202 204 203 206 208 207 208 208 208 212 215 213 210 212 220 229 224 216 213 211 209 208 207 208 207
1 1 6 11 16 18 16 16 20 23 24 23 25 28 28 24 22 23 28 32 29 23 20 18 18 25 37 46 55 63 68 70 70 71 72 75 79 83 88 90 87 91 124 175 197 205 209 208 204 203 203 205 208 204 201 201 203 203 206 211 211 207 207 215 226 222 215 213 212 212 210 209 210 209
2 1 6 13 17 19 18 17 20 24 26 27 29 31 32 34 34 33 34 36 35 31 30 32 33 34 38 43 49 55 58 61 65 68 70 72 73 74 77 76 73 74 77 93 164 200 206 203 202 202 198 198 203 201 196 195 196 198 200 204 207 207 207 212 221 219 214 211 210 210 209 208 208 208
2 1 6 15 18 19 20 19 20 25 27 28 30 31 33 37 40 39 38 38 38 38 38 37 37 39 41 41 43 46 46 48 54 60 66 72 74 76 78 78 78 81 82 84 102 155 189 190 192 199 200 198 197 193 192 192 191 192 194 196 201 206 208 210 216 218 215 212 208 206 205 202 201 203
1 0 6 14 16 17 20 21 22 26 29 29 30 30 31 36 40 41 40 39 39 39 39 38 37 38 38 39 40 40 40 43 48 54 61 69 73 75 78 80 82 87 91 89 92 106 136 161 172 186 196 201 201 193 190 190 189 188 189 191 195 201 204 206 211 214 214 212 210 207 204 199 195 196
0 358 2 10 13 15 19 21 23 27 30 30 31 31 31 34 38 41 41 42 42 41 41 41 40 40 40 41 42 42 43 48 56 60 64 72 77 76 75 76 80 84 86 87 89 93 100 112 128 147 163 182 199 199 192 189 187 187 189 190 191 196 201 202 204 207 208 209 210 210 208 204 197 193
358 353 356 5 11 15 19 22 24 27 30 31 31 32 32 34 37 39 41 42 43 44 44 44 44 44 43 44 45 46 48 50 52 53 57 64 70 69 65 69 76 78 77 80 86 90 90 92 97 109 123 137 166 189 191 188 184 181 186 192 191 191 195 199 200 203 204 204 205 208 211 210 204 196
356 351 356 5 11 17 22 26 28 29 30 30 31 32 33 34 36 39 40 41 43 44 44 44 45 46 45 43 44 45 47 49 49 47 47 49 51 50 48 56 67 71 72 75 77 81 87 89 88 90 100 110 121 145 170 183 186 182 180 187 193 193 193 194 196 199 202 204 204 205 207 209 210 206
355 350 355 3 7 13 19 24 29 31 31 31 31 32 33 34 35 37 38 40 41 41 42 42 43 45 45 44 43 42 42 44 46 46 45 45 44 43 41 46 54 59 66 73 76 75 78 82 84 84 84 87 98 110 120 144 175 185 185 183 187 191 191 192 193 193 196 200 205 207 206 204 205 208
353 350 357 2 5 11 16 20 25 29 32 33 32 33 33 33 33 34 35 36 38 38 39 40 40 41 42 42 43 43 42 40 39 40 41 42 43 44 46 48 48 47 49 54 61 65 68 71 77 83 80 75 81 97 106 107 124 163 184 188 189 188 183 183 188 191 191 195 199 204 208 208 204 203
354 358 7 11 14 18 20 23 26 27 29 31 32 33 33 32 32 34 34 34 35 36 36 38 38 39 40 40 40 41 42 42 40 39 40 40 41 43 45 46 46 45 43 43 44 48 57 62 66 78 84 78 74 79 91 98 99 110 146 176 190 193 188 182 182 186 190 193 196 198 201 206 209 208
3 10 17 20 23 24 25 27 30 29 29 30 31 32 33 32 32 33 33 33 33 33 34 36 37 38 39 39 39 40 41 42 43 43 43 43 43 44 43 42 41 38 38 39 38 37 40 45 52 65 77 82 81 77 75 80 88 95 102 121 158 184 190 188 187 187 187 189 194 196 196 197 202 209
12 19 22 24 26 28 27 29 31 31 31 31 30 30 31 31 31 32 32 32 31 32 32 33 34 36 37 38 39 39 39 40 41 42 43 44 44 45 45 44 41 36 34 34 34 33 33 33 36 46 60 74 82 79 72 72 79 90 101 106 118 148 171 181 188 193 192 189 190 196 198 197 197 200
18 23 25 26 28 29 29 30 30 31 32 32 31 31 30 30 30 31 31 31 31 31 32 32 33 34 35 35 36 38 38 38 39 40 42 43 44 44 43 42 41 38 34 32 29 28 29 30 32 39 48 56 61 61 66 79 80 82 100 115 120 134 154 165 175 189 195 196 195 197 200 200 198 197
21 25 26 28 30 30 30 30 29 29 31 31 31 32 31 30 30 30 30 29 30 30 31 32 32 33 33 32 32 34 35 36 37 37 39 39 40 41 39 37 37 37 37 36 32 27 24 24 30 38 41 40 37 30 30 56 76 74 94 118 124 135 161 174 170 176 190 197 199 202 204 202 198 194
24 27 29 30 31 31 30 31 30 30 30 30 31 32 31 29 29 29 29 29 29 29 30 30 31 31 32 32 32 31 32 33 33 34 35 35 36 37 37 34 33 34 35 36 37 34 28 22 24 31 34 32 28 19 10 10 17 20 21 82 126 126 137 184 197 186 181 189 196 201 205 206 202 197
27 30 32 33 33 33 32 32 32 32 32 32 31 32 31 30 29 29 29 29 29 30 30 30 29 29 29 30 30 29 30 31 30 31 32 32 32 33 33 33 32 32 32 33 33 34 32 25 20 23 23 20 17 15 10 9 14 22 21 360 287 151 128 172 207 206 196 189 187 189 194 199 201 201
31 33 35 36 36 36 35 34 34 33 33 33 32 32 31 30 30 29 29 28 28 29 30 30 29 28 27 27 26 26 26 28 27 27 27 28 29 29 29 29 30 30 31 31 30 29 29 25 18 15 12 9 9 14 18 17 19 29 34 19 316 203 177 190 200 197 198 201 190 182 181 184 188 194
35 35 36 37 38 37 35 34 33 32 31 30 30 30 30 29 29 29 28 27 26 27 28 29 29 28 27 27 26 24 24 24 23 22 22 22 24 25 25 25 25 25 27 28 26 24 23 21 16 9 3 0 4 16 30 30 22 27 45 46 27 209 197 201 200 190 184 186 193 191 183 178 179 185
37 37 36 36 36 36 35 33 32 30 29 28 27 27 28 27 27 27 27 26 25 24 24 26 26 26 26 26 25 24 23 22 21 20 19 18 18 20 21 23 22 20 20 23 23 21 18 15 13 10 4 356 352 355 21 44 49 54 72 75 65 175 195 193 194 188 178 171 175 191 191 184 186 191
37 36 36 35 35 35 34 33 32 31 29 28 27 26 26 26 26 26 26 25 24 23 22 23 23 23 22 23 23 22 22 21 20 18 17 16 15 15 16 18 18 16 15 15 16 18 18 15 12 10 6 358 349 340 343 7 53 79 88 94 100 118 177 184 177 174 170 163 161 168 179 186 191 194
38 37 36 36 35 35 35 34 33 32 30 29 28 27 27 27 26 25 25 25 24 22 21 21 21 20 19 18 19 19 19 18 18 17 16 15 14 12 11 11 12 13 12 11 10 11 13 13 13 15 14 6 355 343 333 328 335 39 74 95 112 122 145 179 176 169 164 159 155 157 161 163 159 155